STARLINK-32364, 61622

Orbit data source: Space-Track

STARLINK-32364, 61622 is a payload satellite owned by SpaceX/Seattle (US) in LEO that was launched on Wed, 23 Oct 2024 UTC via an FALCON 9 launch vehicle from the Air Force Eastern Test Range (AFETR). Payload-class satellites include a variety of spacecraft equipped with specific instruments for various scientific and technological missions. These include communications satellites like Starlink; space stations such as the ISS; scientific satellites like the Hubble; Earth observation satellites from companies like Planet Labs, Umbra, and HawkEye 360; GPS; miniature CubeSats for education and research; and military/defense satellites.

Loading next visibility...
Identifier
61622, 2024-191B
Orbit
LEO
Country
Flag of USUS
Related business
Manufacturer
SpaceX/Seattle
Mission
Operational Commercial Communications
Bus & Motor
STARLINK V2M, Unknown motor
Mass
730 kg wet, ~700 kg dry
Launch date (UTC)
2024-10-23 (1 year ago)
Launch vehicle
FALCON 9
Launch site
Air Force Eastern Test Range (AFETR)
Object type
Payload
Rocket body
Debris
Shape & HBR
Box + 2 Pan, 17.7 m
Radar Cross Section
33.884 m², Large (>1 m²)

Expand to show TLE details & history
Last TLE update: 19 hours ago

TLE from 19 hours ago
0 STARLINK-32364
1 61622U 24191B   25291.57740855  .00000798  00000-0  38502-4 0  9990
2 61622  43.0042 236.9494 0001216 249.9048 110.1673 15.27582273 55804
Epoch: 2025-10-18T13:51Z
TLE epoch observation values (Epoch: 2025-10-18T13:51:28.098Z)
Latitude
-0.00002°
Longitude
1.77587°
Altitude
483.106 km
Speed
7.626 km/s
True Right ascension
15h 47m 47s
True Declination
0° 00' 00"
Sunlit
Object was in daylight at epoch
Visualization orbit readout
Latitude
Unknown
Longitude
Unknown
Altitude
Unknown
Speed
Unknown
Apparent Right ascension
Unknown
Apparent Declination
Unknown
Sunlit
N/A
Visualization observer readout
Local Sidereal Time
03:47:58
Azimuth
Unknown
Elevation
Unknown
Doppler factor
Unknown
Orbital elements
Apogee altitude
485.821 km
Perigee altitude
484.152 km
Semi-major axis
6,863.124 km
Eccentricity
0.00012
Inclination
43.0042°
RAAN
236.9494°
Arg. of periapsis
249.9048°
True anomaly
110.18038°
Mean anomaly
110.1673°
Eccentric anomaly
110.17384°
Mean motion
3.81734 °/min
Orbital period
94.31 mins
BSTAR
0.000038502
Loading maneuver chart data...
Computing Atmospheric mass density...
Loading historical data...
Loading historical data...
Loading historical data...
Loading historical data...
Loading historical data...
Loading historical data...
Loading historical data...

Documentation

Showing up to 5 results
|